W6DSP Weather Reports


Display with metric or nautical units.
time (UTC)temp
F
wind
direction
speed
MPH
gust
MPH
rain 1hr
in
rain 24hr
in
rain mn
in
humidity
%
barometer
mb
20260901093308 72 107 0.0 1.0 0.00 0.01 0.00 91 1015.4
20260901092049 72 107 0.0 0.0 0.00 0.01 0.00 91 1015.2
20260901084517 72 107 0.0 1.0 0.00 0.01 0.00 90 1015.1
20260901083307 73 15 0.0 0.0 0.00 0.01 0.00 90 1015.0
20260901080844 73 18 0.0 1.0 0.00 0.01 0.00 90 1015.0
20260901074534 74 17 0.0 1.0 0.00 0.01 0.00 89 1014.9
20260901073340 74 140 0.0 1.0 0.00 0.01 0.00 88 1014.9
20260901070907 74 244 0.0 3.0 0.00 0.01 0.00 89 1014.9
20260901065725 75 340 0.0 0.0 0.00 0.01 0.00 88 1015.0
20260901054451 76 28 0.0 2.0 0.00 0.01 0.00 86 1015.1
20260901053229 76 67 0.0 3.0 0.00 0.01 0.00 87 1015.2
20260901045746 76 301 0.0 3.0 0.00 0.01 0.00 87 1015.0
20260901044549 75 244 0.0 2.0 0.00 0.01 0.00 88 1015.1
20260901043343 75 198 0.0 2.0 0.00 0.01 0.00 88 1015.3
20260901040944 76 190 0.0 0.0 0.00 0.01 0.00 87 1015.1
20260901034507 78 288 0.0 2.0 0.00 0.01 0.01 83 1014.8
20260901030927 78 126 1.0 6.0 0.00 0.01 0.01 83 1014.2
20260901024528 78 130 0.0 8.0 0.00 0.01 0.01 82 1015.1
20260901023312 78 148 0.0 8.0 0.00 0.01 0.01 83 1015.3
20260901022115 78 106 0.0 8.0 0.00 0.01 0.01 83 1015.2
20260901020856 78 275 0.0 3.0 0.00 0.01 0.01 85 1015.5
20260901005628 78 120 0.0 2.0 0.00 0.01 0.01 87 1015.0
20260901004438 78 120 0.0 1.0 0.00 0.01 0.01 86 1015.1
20260901000930 78 96 0.0 0.0 0.00 0.01 0.01 88 1015.2
20260831235700 79 96 0.0 0.0 0.00 0.01 0.01 86 1015.1
20260831232108 81 96 0.0 0.0 0.00 0.01 0.01 85 1015.2
20260831225646 83 96 0.0 0.0 0.00 0.01 0.01 81 1015.3
20260831223324 84 123 0.0 4.0 0.00 0.01 0.01 75 1015.0
20260831212222 86 108 1.0 11.0 0.00 0.01 0.01 71 1015.0
20260831211044 87 32 1.0 6.0 0.00 0.01 0.01 73 1014.9
20260831203436 88 142 1.0 12.0 0.00 0.01 0.01 71 1015.0
20260831201030 87 119 1.0 11.0 0.00 0.01 0.01 77 1015.0
20260831194607 83 128 0.0 3.0 0.00 0.01 0.01 82 1015.6
20260831193358 82 157 0.0 1.0 0.00 0.01 0.01 84 1015.9
20260831185812 77 294 0.0 1.0 0.00 0.01 0.01 90 1016.4
20260831182109 76 5 0.0 1.0 0.00 0.00 0.00 90 1017.0
20260831180910 76 5 0.0 2.0 0.00 0.00 0.00 90 1017.3
20260831173305 77 270 0.0 1.0 0.00 0.00 0.00 87 1017.5
20260831172130 77 149 0.0 4.0 0.00 0.00 0.00 88 1017.3
20260831165717 77 117 0.0 2.0 0.00 0.00 0.00 88 1017.6
20260831160843 77 294 0.0 1.0 0.00 0.00 0.00 87 1018.4
20260831152102 77 79 0.0 1.0 0.00 0.00 0.00 85 1017.9
20260831150928 77 140 0.0 0.0 0.00 0.00 0.00 84 1017.9
20260831142039 76 163 1.0 7.0 0.00 0.00 0.00 83 1017.6
20260831140845 75 123 0.0 4.0 0.00 0.00 0.00 85 1017.6
20260831133331 75 136 0.0 1.0 0.00 0.00 0.00 86 1017.5
20260831130908 74 224 0.0 1.0 0.00 0.00 0.00 86 1017.6
20260831123231 72 110 0.0 2.0 0.00 0.00 0.00 92 1017.3
20260831115708 69 5 0.0 1.0 0.00 0.00 0.00 93 1016.8
20260831113319 69 5 0.0 2.0 0.00 0.00 0.00 93 1016.8
20260831110815 69 5 0.0 2.0 0.00 0.00 0.00 93 1016.8